Hourly Weather Roundup
Issued by NWS

Home | Current Version | Previous Version | Text Only | Print | Product List | Glossary On
Versions: 1 2 3 4 5 6 7 8 9 10 11 12 13 14 15 16 17 18 19 20 21 22 23 24 25 26 27 28 29 30 31 32 33 34 35 36 37 38 39 40 41 42 43 44 45 46 47 48 49 50
263
NZUS43 KILX 181110
HWRCRS

NWR Hourly Weather Roundup
National Weather Service Lincoln IL
500 AM CST MON DEC 18 2017


CITY           SKY/WX    TMP DP  RH WIND       PRES   REMARKS
Champaign      CLOUDY    44  42  93 SW12      30.01S
Lawrenceville  CLOUDY    44  43  96 S9        30.08S FOG
Peoria         CLOUDY    44  43  96 S9        29.98F FOG
Springfield    CLOUDY    47  43  86 SW8       30.02S
$$


CITY           SKY/WX    TMP DP  RH WIND       PRES   REMARKS
Bloomington    CLOUDY    43  42  97 W10       29.99S
Danville       CLOUDY    43  42  97 SW9       29.98S
Decatur        CLOUDY    44  42  93 SW9       30.01F
Effingham      CLOUDY    44  44 100 S8        30.07R FOG
Flora          CLOUDY    45  44  96 S7        30.08S FOG
Galesburg      CLOUDY    43  43 100 SW8       29.97S FOG
Jacksonville   CLOUDY    44  41  90 SW6       30.03R
Lacon          CLOUDY    43  42  98 SW3       29.96S
La Salle       CLOUDY    41  40  96 SW7       29.95F FOG
Lincoln        CLOUDY    46  44  95 CALM      30.01S
Litchfield     CLOUDY    44  40  88 SW8       30.04R

CITY           SKY/WX    TMP DP  RH WIND       PRES   REMARKS
Macomb         CLOUDY    44  43  95 SW12      30.00S FOG
Mattoon        CLOUDY    43  42  97 SW9       30.03S
Moline         CLOUDY    41  40  96 W7        29.95R FOG
Olney          CLOUDY    44  42  92 S5        30.08S FOG
Paris          CLOUDY    43  42  98 SW8       30.04S
Pontiac        CLOUDY    44  43  98 SW10      29.98S FOG
Quincy         CLOUDY    45  42  89 SW12      30.00S
Rantoul        CLOUDY    45  44  97 SW10      30.00R
Robinson       CLOUDY    43  43 100 S8        30.08S FOG
Taylorville    CLOUDY    43  41  91 S7        30.03R
Terre Haute    CLOUDY    44  41  89 SW9       30.05S
$$


CITY           SKY/WX    TMP DP  RH WIND       PRES   REMARKS
Burlington     CLOUDY    44  43  96 SW9       29.95F FOG
Chicago        DRIZZLE   42  40  92 W9        29.91F FOG
Des Moines     FOG       27  26  96 W6        29.97S VSB 1/8 WCI  20
Evansville     LGT RAIN  44  44 100 SW8       30.12R FOG
Indianapolis   DRIZZLE   42  41  96 SW8       30.04S FOG
Kansas City    CLOUDY    39  38  96 SW5       30.02S FOG
Milwaukee      DRZL/FOG  35  34  96 W3        29.89F VSB 1
St Louis       DRIZZLE   47  43  86 SW9       30.07R
$$





USA.gov is the U.S. government's official web portal to all federal, state and local government web resources and services.